Weather in Lynn Lake

Canada     56°51′00″N   101°03′07″W
temp.,
°C
wind,
m/s
gust,
m/s
humid.,
%
clouds,
%
prec.,
mm/h
press.,
hPa
HPBL,
m
12 june, sat
sat1201:00+10ene71595100 15.3 1004865
04:00+7ene51396100 6.9 1004550
07:00+7ne4992100 9.6 1004388
10:00+7nne3697100 0.7 1004322
13:00+7n3497100 2.2 1005336
16:00+6n2496100 1.0 1005374
19:00+6nw3697100 5.8 1006493
22:00+6nw4897100 3.6 1007473
13 june, sun
sun1301:00+5wnw4897100 6.1 1007453
04:00+5wnw41097100 2.1 1008462
07:00+5wnw41097100 2.6 1010521
10:00+6wnw4995100 0.1 1012513
13:00+8nw488574 0.1 1013683
16:00+14nnw59588 0.0 10141076
19:00+14n57592 0.0 1015812
22:00+8ne36830 0.0 1017153
14 june, mon
mon1401:00+4ene1196100 0.0 102010
04:00+4ne119573 0.0 102110
07:00+7nne11825 0.0 1022110
10:00+14ene225527 0.0 1021419
13:00+21ese1140100 0.0 1021890
16:00+23ese11364 0.0 10201417
19:00+23ese223711 0.0 10201417
22:00+17e376295 0.0 1021120
15 june, tue
tue1501:00+14se2466100 0.0 102199
04:00+12sse3985100 1.8 1021220
07:00+12ese31087100 3.0 1020258
10:00+12e51193100 1.6 1019347
13:00+20se7115734 1.8 1017990
16:00+27s793588 0.0 10131912
19:00+24sse61044100 0.0 10121243
22:00+19se61357100 0.2 1010574
16 june, wed
wed1601:00+16se616625 0.4 1008530
04:00+14sse51773100 0.0 1007560
07:00+15sse5148891 0.8 1002509
10:00+18ssw41089100 1.5 1000540
13:00+20ssw4787100 2.1 998871
16:00+22sw4777100 2.6 995971
19:00+21w7125689 3.7 994958
22:00+16w2273100 0.0 99415